Location: Charleston
(38.3500°N, 81.6330°W)
Time: 16:33:35
(UTC-05:00)

Daily predictions for brighter satellites

Satellite Brightness Start Highest point End
(mag) Time Altitude Azimuth Time Altitude Azimuth Time Altitude Azimuth
Cosmos 2227 Rocket 2.9 17:27:37 10° N 17:32:39 32° ENE 17:37:39 10° ESE
Meteor 1-12 Rocket 4.3 17:29:37 10° N 17:35:18 70° E 17:41:04 10° SSE
Aureole 1 Rocket 4.3 17:29:27 10° NNW 17:35:40 84° ENE 17:43:34 10° SSE
SJ 16-02 2.4 17:33:53 10° SSE 17:37:31 26° E 17:41:10 10° NE
Cosmos 1975 Rocket 3.3 17:33:06 10° S 17:37:34 78° W 17:42:04 10° N
Cosmos 2219 3.3 17:32:34 10° NNW 17:38:13 88° WSW 17:43:51 10° SSE
ALOS 3.8 17:36:30 10° E 17:39:09 15° ENE 17:41:47 10° NNE
CORIOLIS 4.4 17:35:26 10° SE 17:40:37 48° ENE 17:45:47 10° N
ERS-2 3.9 17:39:37 10° E 17:41:21 13° ENE 17:43:04 10° NE
Cosmos 1271 Rocket 2.9 17:39:53 10° N 17:43:35 50° ENE 17:47:20 10° SSE
Atlas Centaur 2 3.4 17:42:01 10° WSW 17:47:09 33° S 17:51:19 10° SE
Okean 1 4.4 17:43:48 10° SSW 17:47:38 48° W 17:51:29 10° N
Cosmos 1980 Rocket 3.9 17:46:58 10° SE 17:49:43 14° E 17:52:13 11° ENE
Cosmos 1484 Rocket 2.8 17:51:54 10° SSE 17:55:54 89° E 17:59:56 10° NNW
CENTAUR R/B 4.3 17:53:25 10° N 17:58:38 19° NNE 18:02:54 13° ENE
Cosmos 2297 Rocket 2.5 17:54:11 10° N 17:59:35 44° ENE 18:04:57 10° SE
Cosmos 1025 Rocket 4.3 18:00:35 10° SE 18:03:43 20° E 18:05:43 15° NE
Ariane Rocket 3.1 17:59:57 10° SSE 18:05:01 83° WSW 18:10:06 10° NNW
Cosmos 1536 Rocket 3.5 18:01:29 10° S 18:05:47 62° E 18:10:04 10° NNE
Abrixas rocket 4.3 18:03:45 10° WNW 18:06:02 17° NNW 18:07:55 12° NNE
Cosmos 1666 2.7 18:02:37 10° N 18:06:23 84° W 18:10:06 10° S
Cosmos 1975 4.2 18:02:45 10° NNW 18:06:35 43° W 18:10:26 10° SSW
Cosmos 1656 3.7 18:03:30 10° S 18:08:58 58° ESE 18:14:23 10° NNE
ISS -3.9 18:08:00 10° NW 18:11:16 70° NE 18:14:27 11° ESE
Cosmos 1269 Rocket 4.4 18:09:16 10° N 18:14:17 40° ENE 18:19:14 10° SE
PSLV R/B 3.2 18:12:49 10° W 18:15:57 63° NNW 18:17:28 27° ENE
Cosmos 1125 Rocket 3.5 18:11:29 10° SSW 18:16:46 78° ESE 18:22:05 10° NNE
Meteor 2-4 Rocket 3.6 18:12:14 10° S 18:17:41 82° E 18:23:05 10° N
Cosmos 389 Rocket 4.2 18:15:11 10° NNW 18:18:22 34° W 18:21:31 10° SSW
SKYMED 2 3.6 18:15:47 10° NNE 18:20:05 57° E 18:24:20 10° S
Cosmos 2084 4.3 18:18:50 10° S 18:22:29 29° ESE 18:23:42 24° E
USA 238 DEB 3.8 18:16:36 10° NNW 18:23:46 85° ENE 18:30:59 10° SSE
USA 238 3.8 18:16:42 10° NNW 18:23:52 84° ENE 18:31:05 10° SE
CZ-4 R/B 1.7 18:20:20 10° S 18:24:09 65° W 18:28:04 10° NNW
Cosmos 1048 Rocket 4.0 18:21:59 10° NNW 18:27:22 66° ENE 18:32:41 10° SSE
Cosmos 2369 3.8 18:25:27 10° SSW 18:31:06 78° WNW 18:36:50 10° NNE
Cosmos 2266 Rocket 3.9 18:25:55 10° N 18:32:03 84° E 18:38:14 10° S
Cosmos 2278 3.8 18:26:25 10° SSW 18:32:05 81° WNW 18:37:45 10° NNE
Hubble Space Telescope 3.2 18:34:16 10° SW 18:36:58 17° S 18:39:40 10° SSE
NOAA 12 4.1 18:32:51 10° SSE 18:38:00 57° ENE 18:43:09 10° N
Cosmos 372 Rocket 4.2 18:32:50 10° SSW 18:38:01 70° WNW 18:43:13 10° NNE
Meteor 1-15 Rocket 4.3 18:34:36 10° N 18:40:31 65° E 18:46:21 10° SSE
FENGYUN 3A 3.6 18:35:46 10° SSE 18:41:04 63° ENE 18:46:22 10° N
Okean 2 3.3 18:39:40 10° S 18:43:42 58° E 18:45:16 34° NNE
METEOR-M 4.3 18:39:29 10° S 18:44:48 73° WSW 18:50:09 10° NNW
DELTA 2 R/B (1) 3.5 18:41:07 10° W 18:46:42 79° N 18:49:04 36° E
EO 1 Del DPAF 3.2 18:45:04 19° N 18:47:41 80° WNW 18:51:29 10° SSW
MINOTAUR IV R/B 4.5 18:43:32 10° NNW 18:48:03 87° ENE 18:52:31 10° SSE
MONITOR-E 4.3 18:46:34 10° S 18:49:36 69° W 18:52:38 10° NNW
YAOGAN 1 3.6 18:46:54 10° S 18:51:04 48° W 18:55:17 10° NNW
Cosmos 1697 Rocket 2.6 18:46:47 10° SSW 18:52:26 90° NW 18:56:12 22° NNE
Cosmos 1515 3.6 18:49:04 10° S 18:52:50 85° W 18:54:28 33° N
NOSS 3-2 (A) 4.0 18:45:41 10° NNW 18:53:20 78° ENE 19:01:36 10° SE
Gbstr 26 Del rocket 4.5 18:50:55 10° WSW 18:58:59 75° NW 19:02:47 32° NE
STPSAT 2 (USA 217) 4.4 18:54:28 10° NNW 18:59:01 79° ENE 19:03:33 10° SSE
NOSS 3-2 (C) 4.0 18:52:43 10° NNW 19:00:18 67° NE 19:08:32 10° SE
Cosmos 2082 4.3 18:58:46 10° NNW 19:04:15 57° WSW 19:09:44 10° S
Cosmos 1244 Rocket 4.3 18:59:18 10° N 19:05:27 69° E 19:11:35 10° SSE
ATLAS 2AS CENTAUR R/B 4.4 18:58:40 10° W 19:05:29 31° NW 19:12:22 11° NNE
COSMO-SKYMED 1 3.9 19:04:01 10° N 19:08:03 39° WNW 19:12:04 10° SW
ATLAS 3B R/B 3.5 19:02:46 10° NW 19:09:03 48° WSW 19:15:13 10° S
FengYun 1-2 T 4.2 19:04:04 10° SSE 19:09:33 59° ENE 19:15:06 10° N
ERS-2 3.6 19:11:14 10° SSW 19:14:39 37° W 19:18:05 10° NNW
SJ 16-02 3.4 19:12:24 10° WSW 19:16:01 25° WNW 19:19:26 11° N
ALOS 3.0 19:11:34 10° S 19:16:06 53° W 19:20:41 10° NNW
Cosmos 2227 Rocket 3.8 19:11:37 10° NW 19:16:39 34° WSW 19:21:40 10° SSW
Cosmos 1553 Rocket 3.9 19:17:54 10° S 19:24:15 72° E 19:26:05 48° NNE
NOSS 3-4 (A) 3.8 19:19:55 10° SW 19:26:02 60° NW 19:28:35 36° N
NOSS 3-4 (C) 3.8 19:20:01 10° SW 19:26:08 61° NW 19:28:39 36° N
Cosmos 1417 Rocket 4.3 19:21:06 10° S 19:27:14 87° E 19:30:03 35° N
SL-08 R/B 4.3 19:22:47 10° N 19:31:21 40° SSE 19:35:13 10° SSE
Okean 1-7 Rocket 4.3 19:26:47 10° SSW 19:31:03 51° W 19:31:34 48° NW
Cosmos 1066 Rocket 4.0 19:25:55 10° S 19:31:29 89° E 19:31:38 85° NNE
Cosmos 1980 Rocket 2.3 19:27:20 10° SSW 19:32:58 72° WNW 19:34:02 57° N
Atlas Centaur 2 3.8 19:32:23 10° WSW 19:35:13 16° SSW 19:36:07 15° S
Thor Agena Rocket 3.9 19:44:03 63° SW 19:44:03 63° SW 19:48:30 10° SSW
Cosmos 2297 Rocket 4.4 19:38:53 10° NW 19:43:17 24° W 19:47:40 10° SSW
ISS -0.4 19:46:35 10° WSW 19:47:12 11° SW 19:47:12 11° SW
RESURS DK-1 4.5 19:43:14 10° SSW 19:44:47 22° SW 19:44:47 22° SW
CENTAUR R/B 3.1 19:43:02 10° NNW 19:50:09 60° NNE 19:50:09 60° NNE
Cosmos 2344 4.0 19:44:08 10° S 19:49:48 44° SSE 19:49:48 44° SSE
SL-16 R/B 4.3 20:07:10 10° SSW 20:08:18 16° SSW 20:08:18 16° SSW
Cosmos 2322 Rocket 4.5 20:13:02 10° SSW 20:13:50 14° SSW 20:13:50 14° SSW
